[[{"header":{"parameterUnit":"m.s-1","parameterCategory":1,"la1":30.2991,"la2":30.254,"lo1":-89.0895,"lo2":-89.0444,"dy":0.0017,"dx":0.0017,"nx":28,"ny":28,"refTime":"2024-06-11T21:00:00:Z","depth":0,"parameterNumber":2,"parameterNumberName":"U-component_of_WINDS"},"data":[0,0,0,0,0,0,0,0,0,0,0,0,0,0,0,0,0,0,0,0,0,0,0,0,0,0,0,0,0,0,0,0,0,0,0,0,0,0,0,0,0,0,0,0,0,0,0,0,0,0,0,0,0,0,0,0,0,0,-1.148,-1.1479,0,-1.1352,-1.1351,-1.1349,-1.1261,-1.1261,-1.126,-1.1259,-1.1128,-1.1125,-1.1123,0,0,0,0,0,0,0,0,0,0,0,0,0,-1.165,-1.1647,-1.148,-1.1479,-1.1477,-1.1352,-1.1351,-1.1349,-1.1261,-1.1261,-1.126,-1.1259,-1.1129,-1.1126,-1.1122,0,0,0,0,0,0,0,0,0,0,0,0,0,-1.1555,-1.1647,-1.1481,-1.1418,-1.1412,-1.1353,-1.1351,-1.1348,-1.1262,-1.1261,-1.126,-1.1259,-1.113,-1.1126,-1.1122,-1.1115,0,0,-1.1109,-1.1107,0,0,0,0,0,0,0,0,-1.156,-1.1549,-1.1429,-1.1423,-1.1415,-1.1322,-1.1362,-1.127,-1.1262,-1.1319,-1.1259,-1.1258,-1.1193,-1.1184,-1.1162,-1.1109,-1.1103,-1.1108,-1.1106,-1.1104,-1.1103,0,0,0,0,0,0,0,-1.1567,-1.1554,-1.143,-1.1428,-1.1419,-1.1397,-1.1383,-1.1344,-1.1263,-1.1313,-1.1307,-1.1293,-1.1189,-1.1166,-1.1158,-1.1101,-1.1108,-1.1105,-1.1102,-1.11,-1.1038,-1.1039,0,0,0,0,0,0,-1.1583,-1.156,-1.1434,-1.1426,-1.1487,-1.1395,-1.1379,-1.1353,-1.1263,-1.1249,-1.1294,-1.1289,-1.1174,-1.1163,-1.1153,-1.1141,-1.1104,-1.11,-1.1097,-1.1037,-1.1038,-1.1039,0,0,0,0,0,0,-1.1587,-1.1573,-1.1439,-1.1491,-1.1472,-1.1393,-1.1365,-1.1351,-1.1327,-1.1248,-1.1233,-1.1285,-1.1173,-1.1159,-1.1126,-1.1135,-1.1098,-1.1094,-1.1036,-1.1038,-1.1039,-1.1116,0,0,0,0,0,0,-1.1593,-1.1575,-1.1571,-1.1491,-1.147,-1.1413,-1.1365,-1.1349,-1.132,-1.1313,-1.1236,-1.1223,-1.1171,-1.1133,-1.1121,-1.1129,-1.1091,-1.1035,-1.1037,-1.1038,-1.1112,-1.112,-1.1126,0,0,0,0,0,-1.1599,-1.1597,-1.1571,-1.1556,-1.1463,-1.1414,-1.1401,-1.1342,-1.1321,-1.1317,-1.1267,-1.1225,-1.1136,-1.113,-1.1116,-1.1123,-1.1034,-1.1036,-1.1038,-1.1109,-1.1118,-1.1126,0,0,0,0,0,0,-1.1679,-1.1585,-1.1556,-1.1528,-1.148,-1.1399,-1.1392,-1.1353,-1.131,-1.1305,-1.1233,-1.1217,-1.1191,-1.1153,-1.1148,-1.1112,-1.108,-1.108,-1.1138,-1.1146,-1.1153,-1.1164,-1.1087,0,0,0,0,0,-1.1694,-1.1661,-1.1581,-1.1564,-1.1542,-1.1472,-1.1448,-1.1406,-1.1353,-1.1332,-1.1279,-1.1229,-1.119,-1.1166,-1.1125,-1.1106,-1.1089,-1.1104,-1.1111,-1.1117,-1.1118,-1.1107,-1.1114,-1.1046,-1.1046,-1.1046,0,0,-1.1723,-1.1668,-1.1652,-1.1579,-1.1537,-1.1506,-1.1455,-1.1423,-1.14,-1.1327,-1.1293,-1.1252,-1.1192,-1.1167,-1.1152,-1.1134,-1.1133,-1.112,-1.1125,-1.1122,-1.111,-1.1117,-1.1122,-1.1048,-1.1048,-1.1047,0,0,-1.1762,-1.1716,-1.1698,-1.1657,-1.1594,-1.1548,-1.1544,-1.1469,-1.144,-1.1404,-1.135,-1.1321,-1.1254,-1.1214,-1.1186,-1.1211,-1.1172,-1.12,-1.1237,-1.1228,-1.1233,-1.1238,-1.1249,-1.1254,-1.1201,-1.1201,-1.1201,0,-1.1807,-1.1757,-1.1694,-1.1667,-1.1637,-1.1571,-1.1553,-1.1516,-1.1443,-1.1425,-1.1405,-1.1322,-1.1277,-1.1242,-1.1249,-1.1226,-1.1221,-1.1209,-1.1238,-1.1241,-1.1245,-1.1255,-1.1259,-1.1205,-1.1205,-1.1204,-1.1204,0,-1.1817,-1.1784,-1.1777,-1.1709,-1.1679,-1.1656,-1.159,-1.1567,-1.1529,-1.1485,-1.1451,-1.1394,-1.1342,-1.1331,-1.1292,-1.1291,-1.1282,-1.1251,-1.1217,-1.1256,-1.1265,-1.1268,-1.1211,-1.1209,-1.1208,-1.1207,0,0,-1.1902,-1.1801,-1.18,-1.1769,-1.1695,-1.1669,-1.1644,-1.1593,-1.1576,-1.1528,-1.1507,-1.1453,-1.1425,-1.1392,-1.1349,-1.134,-1.1368,-1.131,-1.1308,-1.1325,-1.1366,-1.1391,-1.1396,-1.1341,-1.1341,-1.1342,-1.1372,0,-1.1931,-1.1883,-1.1826,-1.1799,-1.1768,-1.1706,-1.1684,-1.1637,-1.1596,-1.1565,-1.1518,-1.1483,-1.1446,-1.1427,-1.1416,-1.1367,-1.1375,-1.1364,-1.1322,-1.1321,-1.1341,-1.14,-1.1426,-1.1457,-1.1374,-1.1375,-1.1375,0,-1.1958,-1.1915,-1.1884,-1.1815,-1.18,-1.1782,-1.1733,-1.1703,-1.1649,-1.162,-1.1585,-1.1539,-1.1511,-1.1481,-1.1442,-1.1436,-1.1415,-1.1389,-1.1389,-1.1384,-1.1352,-1.1399,-1.1465,-1.1471,-1.1379,-1.1379,-1.1378,0,-1.2027,-1.196,-1.1934,-1.1909,-1.1827,-1.1817,-1.1782,-1.1727,-1.1701,-1.1658,-1.1641,-1.1595,-1.157,-1.1536,-1.148,-1.1462,-1.1449,-1.1413,-1.1425,-1.1427,-1.1426,-1.1427,-1.1492,-1.141,-1.141,-1.141,-1.141,0,-1.2066,-1.205,-1.1964,-1.1948,-1.1929,-1.1864,-1.1848,-1.1807,-1.176,-1.1736,-1.1678,-1.1657,-1.1583,-1.1553,-1.1509,-1.1485,-1.1474,-1.1451,-1.1439,-1.1457,-1.146,-1.1444,-1.1441,-1.1411,-1.1411,-1.141,-1.141,0,-1.2139,-1.2081,-1.2048,-1.1974,-1.1955,-1.1945,-1.1882,-1.1864,-1.182,-1.1791,-1.178,-1.1711,-1.1673,-1.1613,-1.1558,-1.1528,-1.1513,-1.1493,-1.1532,-1.1526,-1.1542,-1.1542,-1.16,-1.1605,-1.1519,-1.152,-1.152,0,-1.2169,-1.2156,-1.2081,-1.2061,-1.2029,-1.1997,-1.197,-1.1906,-1.1882,-1.1821,-1.1811,-1.1769,-1.1733,-1.1676,-1.1621,-1.1579,-1.1559,-1.1582,-1.1552,-1.1571,-1.1562,-1.1565,-1.1564,-1.159,-1.1591,-1.1592,-1.1593,0,-1.2229,-1.2201,-1.2166,-1.2121,-1.2091,-1.2052,-1.2011,-1.1998,-1.1925,-1.19,-1.1861,-1.1833,-1.1777,-1.1737,-1.1688,-1.1653,-1.1612,-1.1603,-1.1604,-1.1622,-1.1646,-1.1636,-1.1553,-1.1602,-1.1601,-1.16,-1.16,-1.1599,-1.2283,-1.227,-1.2215,-1.2178,-1.214,-1.2103,-1.2084,-1.2038,-1.2005,-1.1955,-1.1919,-1.1883,-1.1831,-1.1761,-1.1729,-1.1701,-1.1682,-1.1683,-1.1684,-1.1686,-1.1693,-1.165,-1.1691,-1.1691,-1.169,-1.169,-1.169,0,-1.2342,-1.2305,-1.2271,-1.2215,-1.2187,-1.215,-1.2102,-1.2081,-1.2051,-1.2006,-1.1971,-1.1928,-1.189,-1.1833,-1.179,-1.1779,-1.1759,-1.177,-1.1771,-1.1764,-1.1711,-1.1716,-1.1787,-1.1787,-1.1787,-1.1787,-1.1787,-1.1787,-1.237,-1.2346,-1.2312,-1.2269,-1.2231,-1.2196,-1.2172,-1.2139,-1.2103,-1.2058,-1.2025,-1.1988,-1.1939,-1.1893,-1.1857,-1.1841,-1.1829,-1.1846,-1.1825,-1.1777,-1.1768,-1.1759,-1.1763,-1.1844,-1.1844,-1.1881,-1.1881,-1.1882]},{"header":{"parameterUnit":"m.s-1","parameterCategory":1,"la1":30.2991,"la2":30.254,"lo1":-89.0895,"lo2":-89.0444,"dy":0.0017,"dx":0.0017,"nx":28,"ny":28,"refTime":"2024-06-11T21:00:00:Z","depth":0,"parameterNumber":3,"parameterNumberName":"V-component_of_WINDS"},"data":[0,0,0,0,0,0,0,0,0,0,0,0,0,0,0,0,0,0,0,0,0,0,0,0,0,0,0,0,0,0,0,0,0,0,0,0,0,0,0,0,0,0,0,0,0,0,0,0,0,0,0,0,0,0,0,0,0,0,1.2994,1.2994,0,1.2933,1.2933,1.2932,1.282,1.2817,1.2815,1.2813,1.2752,1.2752,1.2753,0,0,0,0,0,0,0,0,0,0,0,0,0,1.3014,1.3014,1.2994,1.2993,1.2993,1.2934,1.2933,1.2932,1.282,1.2817,1.2815,1.2812,1.2752,1.2752,1.2753,0,0,0,0,0,0,0,0,0,0,0,0,0,1.2985,1.3014,1.2994,1.293,1.2923,1.2934,1.2933,1.2932,1.2821,1.2817,1.2814,1.2811,1.2752,1.2752,1.2753,1.2822,0,0,1.2755,1.2755,0,0,0,0,0,0,0,0,1.2986,1.2984,1.294,1.2934,1.2927,1.2881,1.2917,1.2895,1.2821,1.286,1.2813,1.2809,1.2798,1.2794,1.279,1.2819,1.2816,1.2755,1.2755,1.2755,1.2756,0,0,0,0,0,0,0,1.2989,1.2986,1.297,1.2939,1.2932,1.2904,1.2896,1.2912,1.2848,1.2856,1.2848,1.2842,1.2793,1.279,1.2788,1.2815,1.2755,1.2755,1.2756,1.2756,1.2894,1.2897,0,0,0,0,0,0,1.3,1.2988,1.2972,1.2968,1.2949,1.2906,1.2897,1.2899,1.2847,1.2836,1.2845,1.2837,1.279,1.2787,1.2785,1.2858,1.2755,1.2756,1.2756,1.2891,1.2895,1.2898,0,0,0,0,0,0,1.3001,1.3,1.2974,1.2976,1.2971,1.2909,1.2912,1.2899,1.2895,1.2839,1.2827,1.2853,1.2788,1.2784,1.2812,1.2855,1.2756,1.2757,1.2887,1.2892,1.2896,1.3008,0,0,0,0,0,0,1.3002,1.3001,1.3026,1.2977,1.2971,1.3003,1.2915,1.2901,1.2897,1.2886,1.2843,1.2833,1.2785,1.2812,1.2813,1.2854,1.2757,1.2883,1.2889,1.2895,1.3,1.3016,1.3029,0,0,0,0,0,1.3003,1.3061,1.3028,1.3026,1.3001,1.3006,1.3002,1.2945,1.2901,1.2925,1.2888,1.2834,1.2851,1.2816,1.2816,1.2857,1.288,1.2887,1.2894,1.2993,1.3013,1.3029,0,0,0,0,0,0,1.3116,1.3053,1.3016,1.306,1.3039,1.2987,1.3015,1.2968,1.296,1.295,1.2881,1.2872,1.2909,1.2887,1.2849,1.292,1.2857,1.2865,1.2932,1.295,1.2964,1.2966,1.2758,0,0,0,0,0,1.3146,1.3155,1.31,1.3143,1.3135,1.3078,1.3078,1.3036,1.3011,1.3002,1.2968,1.2946,1.2946,1.2948,1.2945,1.2998,1.2985,1.3027,1.3041,1.3054,1.306,1.3082,1.3098,1.2923,1.2923,1.2922,0,0,1.3208,1.3175,1.3184,1.3165,1.3144,1.3153,1.3071,1.3085,1.3091,1.3004,1.3027,1.3002,1.2973,1.3013,1.3029,1.2996,1.3106,1.3063,1.3074,1.3072,1.3091,1.3108,1.3123,1.2928,1.2927,1.2926,0,0,1.3324,1.3302,1.3333,1.3314,1.3283,1.3244,1.3253,1.3208,1.3187,1.3209,1.3143,1.3151,1.3153,1.3134,1.3125,1.3235,1.3183,1.3237,1.3312,1.3335,1.3348,1.336,1.3395,1.3409,1.3244,1.3245,1.3245,0,1.3404,1.3415,1.3356,1.3373,1.3365,1.3288,1.3319,1.3304,1.3274,1.327,1.3234,1.3234,1.321,1.3242,1.3269,1.3266,1.3271,1.3239,1.3351,1.3363,1.3373,1.3405,1.3418,1.3251,1.325,1.3249,1.3249,0,1.3513,1.3522,1.3552,1.3523,1.352,1.3545,1.3489,1.3493,1.3452,1.3418,1.344,1.3409,1.3397,1.3403,1.3365,1.3429,1.3409,1.3364,1.3298,1.3397,1.3425,1.3438,1.326,1.3257,1.3256,1.3254,0,0,1.3694,1.3633,1.3644,1.3629,1.359,1.3596,1.3617,1.3605,1.3607,1.3591,1.3604,1.3609,1.3566,1.3556,1.3515,1.3536,1.3619,1.3487,1.3485,1.3508,1.3684,1.3714,1.3729,1.3587,1.3589,1.3591,1.3684,0,1.3797,1.3827,1.3775,1.3818,1.3824,1.3751,1.3769,1.3747,1.3716,1.3717,1.3683,1.3685,1.3631,1.3624,1.3642,1.3605,1.3652,1.3599,1.3596,1.3597,1.3599,1.3745,1.3778,1.3867,1.3696,1.3698,1.3699,0,1.392,1.3907,1.395,1.3906,1.3907,1.3924,1.3907,1.391,1.3883,1.3859,1.3848,1.38,1.3816,1.3757,1.3778,1.3742,1.3739,1.3721,1.3723,1.3716,1.365,1.3737,1.3895,1.3906,1.3717,1.3716,1.3715,0,1.4041,1.4036,1.4059,1.405,1.4001,1.4014,1.3994,1.3964,1.396,1.3947,1.3942,1.3932,1.3925,1.3918,1.3867,1.383,1.3892,1.383,1.387,1.3871,1.3882,1.388,1.4035,1.389,1.3889,1.3889,1.3889,0,1.4158,1.4185,1.4112,1.4127,1.4155,1.4096,1.4126,1.41,1.4074,1.4081,1.4021,1.4028,1.3964,1.3965,1.3926,1.3946,1.3946,1.3925,1.3913,1.3927,1.3929,1.3919,1.391,1.3893,1.3892,1.3891,1.3891,0,1.4295,1.4248,1.4268,1.4221,1.4209,1.4232,1.4191,1.4202,1.4168,1.4178,1.4177,1.4124,1.4121,1.4072,1.406,1.4034,1.4068,1.4048,1.4076,1.4067,1.4108,1.4103,1.4258,1.4273,1.4123,1.4125,1.4126,0,1.4369,1.4388,1.4343,1.4343,1.4326,1.4328,1.4322,1.4266,1.4263,1.4234,1.4248,1.4241,1.4231,1.4231,1.4191,1.4181,1.4156,1.4212,1.4154,1.4167,1.4151,1.4148,1.4148,1.4222,1.4224,1.4226,1.4227,0,1.4505,1.4481,1.4475,1.4462,1.4457,1.4444,1.4427,1.4431,1.4369,1.4369,1.4365,1.4358,1.4345,1.4338,1.432,1.43,1.4252,1.4246,1.4254,1.4265,1.4279,1.4267,1.4103,1.4241,1.424,1.4239,1.4238,1.4237,1.4609,1.4621,1.4591,1.4586,1.4568,1.4553,1.456,1.4527,1.4524,1.4508,1.4476,1.4477,1.4449,1.442,1.4404,1.4403,1.4375,1.4388,1.439,1.4392,1.4398,1.4284,1.4401,1.44,1.44,1.44,1.4399,0,1.4736,1.4713,1.4711,1.4688,1.4684,1.4643,1.4622,1.4621,1.4622,1.4601,1.4593,1.4588,1.4581,1.4541,1.4529,1.4536,1.4513,1.4534,1.453,1.4525,1.4427,1.4419,1.4552,1.4552,1.4552,1.4552,1.4552,1.4552,1.4802,1.4819,1.4792,1.48,1.4777,1.4777,1.4768,1.4754,1.4736,1.4733,1.4726,1.4701,1.4671,1.4657,1.4647,1.4636,1.4632,1.4659,1.464,1.4547,1.4532,1.4518,1.451,1.466,1.466,1.4737,1.4738,1.4738]}]]